When you browse on this site, cookies collect data to enhance your experience and personalize the content and advertising you see.
Visit our Privacy Policy to learn more. By continuing to use the site, you agree to this use of cookies and data.
  • In United Kingdom
  • List of Countries
  • For 7 days
  • Water Temperature
  • Satellite Maps
  • Weather Map
  • Weather Widgets
  • user-avatar
    Login

    Hourly Weather Laksau

    Today, 23 February, Saturday

    Time Temperature Precipitation Wind Pressure Humidity
    00:00 +22°C° 0 mm 1 mps 702 mmHg 89%
    01:00 +22°C° 0 mm 1 mps 702 mmHg 90%
    02:00 +22°C° 0 mm 1 mps 701 mmHg 90%
    03:00 +22°C° 0 mm 1 mps 701 mmHg 90%
    04:00 +21°C° 0 mm 1 mps 701 mmHg 90%
    05:00 +22°C° 0.1 mm 1 mps 701 mmHg 89%
    06:00 +22°C° 0.1 mm 1 mps 702 mmHg 87%
    07:00 +21°C° 0 mm 0 mps 702 mmHg 83%
    08:00 +26°C° 0 mm 1 mps 702 mmHg 71%
    09:00 +28°C° 0 mm 1 mps 703 mmHg 60%
    10:00 +31°C° 0 mm 1 mps 704 mmHg 49%
    11:00 +32°C° 0 mm 1 mps 703 mmHg 44%
    12:00 +33°C° 0 mm 1 mps 703 mmHg 39%
    13:00 +34°C° 0 mm 2 mps 702 mmHg 39%
    14:00 +34°C° 0 mm 2 mps 702 mmHg 39%
    15:00 +33°C° 0 mm 1 mps 701 mmHg 39%
    16:00 +33°C° 0 mm 1 mps 701 mmHg 38%
    17:00 +30°C° 0 mm 1 mps 701 mmHg 49%
    18:00 +28°C° 0 mm 1 mps 701 mmHg 60%
    19:00 +25°C° 0 mm 1 mps 701 mmHg 70%
    20:00 +24°C° 0.1 mm 1 mps 701 mmHg 76%
    21:00 +24°C° 0.1 mm 1 mps 702 mmHg 82%
    22:00 +23°C° 0.1 mm 1 mps 702 mmHg 87%
    23:00 +23°C° 0.2 mm 1 mps 702 mmHg 89%

    Tomorrow, 24 February, Sunday

    Time Temperature Precipitation Wind Pressure Humidity
    00:00 +23°C° 0.2 mm 1 mps 702 mmHg 91%
    01:00 +22°C° 0.2 mm 1 mps 702 mmHg 93%
    02:00 +22°C° 0.1 mm 1 mps 702 mmHg 94%
    03:00 +22°C° 0.1 mm 1 mps 702 mmHg 95%
    04:00 +22°C° 0.1 mm 1 mps 702 mmHg 96%
    05:00 +22°C° 0.1 mm 1 mps 702 mmHg 95%
    06:00 +22°C° 0.1 mm 1 mps 702 mmHg 95%
    07:00 +22°C° 0.1 mm 1 mps 703 mmHg 94%
    08:00 +23°C° 0.2 mm 1 mps 703 mmHg 90%
    09:00 +24°C° 0.2 mm 1 mps 704 mmHg 85%
    10:00 +25°C° 0.2 mm 1 mps 704 mmHg 80%
    11:00 +26°C° 0.4 mm 1 mps 704 mmHg 74%
    12:00 +27°C° 0.4 mm 1 mps 703 mmHg 68%
    13:00 +29°C° 0.4 mm 1 mps 703 mmHg 62%
    14:00 +29°C° 0.3 mm 1 mps 703 mmHg 62%
    15:00 +28°C° 0.3 mm 1 mps 702 mmHg 63%
    16:00 +28°C° 0.3 mm 1 mps 701 mmHg 63%
    17:00 +26°C° 0 mm 1 mps 701 mmHg 71%
    18:00 +24°C° 0 mm 1 mps 701 mmHg 79%
    19:00 +23°C° 0 mm 1 mps 701 mmHg 87%
    20:00 +22°C° 0 mm 1 mps 702 mmHg 88%
    21:00 +22°C° 0 mm 1 mps 702 mmHg 90%
    22:00 +21°C° 0 mm 1 mps 703 mmHg 92%
    23:00 +21°C° 0 mm 1 mps 703 mmHg 93%

    Day after tomorrow, 25 February, Monday

    Time Temperature Precipitation Wind Pressure Humidity
    00:00 +21°C° 0 mm 1 mps 702 mmHg 93%
    01:00 +21°C° 0 mm 1 mps 702 mmHg 94%
    02:00 +21°C° 0 mm 1 mps 702 mmHg 94%
    03:00 +21°C° 0 mm 1 mps 701 mmHg 95%
    04:00 +21°C° 0 mm 1 mps 701 mmHg 95%
    05:00 +21°C° 0 mm 1 mps 701 mmHg 94%
    06:00 +21°C° 0 mm 1 mps 702 mmHg 93%
    07:00 +21°C° 0 mm 1 mps 702 mmHg 92%
    08:00 +24°C° 0 mm 1 mps 703 mmHg 80%
    09:00 +27°C° 0 mm 1 mps 704 mmHg 67%
    10:00 +30°C° 0 mm 1 mps 705 mmHg 54%
    11:00 +31°C° 0.3 mm 1 mps 705 mmHg 54%
    12:00 +31°C° 0.3 mm 1 mps 704 mmHg 54%
    13:00 +31°C° 0.3 mm 1 mps 703 mmHg 54%
    14:00 +30°C° 1 mm 1 mps 702 mmHg 59%
    15:00 +29°C° 1 mm 1 mps 702 mmHg 64%
    16:00 +28°C° 1 mm 1 mps 701 mmHg 68%
    17:00 +26°C° 0.2 mm 1 mps 701 mmHg 75%
    18:00 +25°C° 0.2 mm 1 mps 701 mmHg 81%
    19:00 +23°C° 0.2 mm 1 mps 701 mmHg 88%
    20:00 +23°C° 0 mm 1 mps 702 mmHg 90%
    21:00 +22°C° 0 mm 1 mps 702 mmHg 92%
    22:00 +22°C° 0 mm 1 mps 703 mmHg 94%
    23:00 +22°C° 0 mm 1 mps 703 mmHg 94%

    26 February, Tuesday

    Time Temperature Precipitation Wind Pressure Humidity
    00:00 +22°C° 0 mm 1 mps 702 mmHg 94%
    01:00 +21°C° 0 mm 1 mps 702 mmHg 94%
    02:00 +21°C° 0 mm 1 mps 702 mmHg 95%
    03:00 +21°C° 0 mm 1 mps 701 mmHg 95%
    04:00 +21°C° 0 mm 1 mps 701 mmHg 95%
    05:00 +21°C° 0 mm 1 mps 702 mmHg 94%
    06:00 +21°C° 0 mm 1 mps 702 mmHg 93%
    07:00 +21°C° 0 mm 1 mps 703 mmHg 93%
    08:00 +24°C° 0 mm 1 mps 704 mmHg 80%
    09:00 +27°C° 0 mm 1 mps 705 mmHg 67%
    10:00 +30°C° 0 mm 1 mps 706 mmHg 54%
    11:00 +29°C° 0.4 mm 0 mps 705 mmHg 53%
    12:00 +29°C° 0.4 mm 0 mps 704 mmHg 51%
    13:00 +29°C° 0.4 mm 0 mps 703 mmHg 50%
    14:00 +29°C° 0.5 mm 0 mps 702 mmHg 50%
    15:00 +29°C° 0.5 mm 0 mps 702 mmHg 49%
    16:00 +29°C° 0.5 mm 0 mps 701 mmHg 49%
    17:00 +27°C° 0.1 mm 0 mps 701 mmHg 59%
    18:00 +26°C° 0.1 mm 1 mps 701 mmHg 68%
    19:00 +24°C° 0.1 mm 1 mps 702 mmHg 78%
    20:00 +23°C° 0.1 mm 1 mps 702 mmHg 82%
    21:00 +23°C° 0.1 mm 1 mps 703 mmHg 85%
    22:00 +22°C° 0.1 mm 1 mps 703 mmHg 89%
    23:00 +22°C° 0 mm 1 mps 703 mmHg 90%

    27 February, Wednesday

    Time Temperature Precipitation Wind Pressure Humidity
    00:00 +22°C° 0 mm 1 mps 702 mmHg 91%
    01:00 +21°C° 0 mm 1 mps 702 mmHg 92%
    02:00 +21°C° 0 mm 1 mps 701 mmHg 93%
    03:00 +21°C° 0 mm 1 mps 701 mmHg 93%
    04:00 +21°C° 0 mm 1 mps 701 mmHg 93%
    05:00 +21°C° 0 mm 1 mps 701 mmHg 92%
    06:00 +21°C° 0 mm 1 mps 702 mmHg 90%
    07:00 +21°C° 0 mm 1 mps 702 mmHg 89%
    08:00 +23°C° 0 mm 0 mps 703 mmHg 74%
    09:00 +27°C° 0 mm 0 mps 704 mmHg 60%
    10:00 +31°C° 0 mm 0 mps 705 mmHg 45%
    11:00 +31°C° 0.1 mm 0 mps 704 mmHg 43%
    12:00 +32°C° 0.1 mm 0 mps 704 mmHg 40%
    13:00 +35°C° 0.1 mm 1 mps 703 mmHg 37%
    14:00 +34°C° 0.2 mm 1 mps 702 mmHg 41%
    15:00 +30°C° 0.2 mm 0 mps 701 mmHg 44%
    16:00 +29°C° 0.2 mm 0 mps 701 mmHg 47%
    17:00 +29°C° 0.1 mm 1 mps 701 mmHg 56%
    18:00 +27°C° 0.1 mm 1 mps 701 mmHg 64%
    19:00 +25°C° 0.1 mm 1 mps 701 mmHg 72%
    20:00 +25°C° 0 mm 1 mps 701 mmHg 75%
    21:00 +24°C° 0 mm 1 mps 702 mmHg 78%
    22:00 +24°C° 0 mm 1 mps 702 mmHg 80%
    23:00 +23°C° 0 mm 1 mps 702 mmHg 81%

    28 February, Thursday

    Time Temperature Precipitation Wind Pressure Humidity
    00:00 +23°C° 0 mm 1 mps 701 mmHg 81%
    01:00 +23°C° 0 mm 1 mps 701 mmHg 82%
    02:00 +22°C° 0 mm 1 mps 701 mmHg 82%
    03:00 +22°C° 0 mm 1 mps 700 mmHg 82%
    04:00 +20°C° 0 mm 0 mps 700 mmHg 82%
    05:00 +22°C° 0 mm 1 mps 700 mmHg 82%
    06:00 +22°C° 0 mm 1 mps 701 mmHg 81%
    07:00 +22°C° 0 mm 1 mps 701 mmHg 80%
    08:00 +24°C° 0 mm 0 mps 702 mmHg 67%
    09:00 +28°C° 0 mm 0 mps 703 mmHg 54%
    10:00 +32°C° 0 mm 0 mps 704 mmHg 42%
    11:00 +33°C° 0.1 mm 1 mps 703 mmHg 41%
    12:00 +33°C° 0.1 mm 1 mps 702 mmHg 41%
    13:00 +33°C° 0.1 mm 1 mps 701 mmHg 41%
    14:00 +32°C° 0.2 mm 1 mps 701 mmHg 43%
    15:00 +32°C° 0.2 mm 1 mps 700 mmHg 44%
    16:00 +29°C° 0.2 mm 0 mps 700 mmHg 46%
    17:00 +28°C° 0.3 mm 0 mps 700 mmHg 53%
    18:00 +26°C° 0.3 mm 0 mps 700 mmHg 60%
    19:00 +24°C° 0.3 mm 0 mps 701 mmHg 67%
    20:00 +23°C° 0.1 mm 0 mps 701 mmHg 70%
    21:00 +22°C° 0.1 mm 0 mps 701 mmHg 72%
    22:00 +22°C° 0.1 mm 0 mps 701 mmHg 74%
    23:00 +21°C° 0.2 mm 0 mps 701 mmHg 75%
    Show more